Regional Weather Roundup
Issued by NWS

Home | Current Version | Previous Version | Graphics & Text | Print | Product List | Glossary Off
Versions: 1 2 3 4 5 6 7 8 9 10 11 12 13 14 15 16 17 18 19 20 21 22 23 24 25 26 27 28 29 30 31 32 33 34 35 36 37 38 39 40 41 42 43 44 45 46 47 48 49 50

000
ASUS43 KFSD 171810
RWRSD

WEATHER ROUNDUP FOR SOUTH DAKOTA
NATIONAL WEATHER SERVICE SIOUX FALLS SD
100 PM CDT WED SEP 17 2014

NOTE: "FAIR" INDICATES FEW OR NO CLOUDS BELOW 12,000 FEET WITH NO
SIGNIFICANT WEATHER AND/OR OBSTRUCTIONS TO VISIBILITY.


SDZ001>005-009-010-012>017-171900-
NORTHWEST AND NORTH CENTRAL SOUTH DAKOTA

CITY           SKY/WX    TMP DP  RH WIND       PRES   REMARKS
BUFFALO          N/A     73  50  44 SE10G20   29.90S
FAITH            N/A     73  53  49 E8G16     29.95F
MOBRIDGE       MOSUNNY   73  52  47 SE12      29.94S
$$

SDZ012>016-024>037-041>051-057-063-072>074-171900-
SOUTHWEST AND SOUTH CENTRAL SOUTH DAKOTA

CITY           SKY/WX    TMP DP  RH WIND       PRES   REMARKS
RAPID CTY ARPT MOSUNNY   73  49  42 E5        29.97F
PIERRE         SUNNY     77  51  40 NE8       29.92F
CUSTER         MOSUNNY   76  33  21 VRB7G16   30.07F
ELLSWORTH AFB  CLOUDY    72  50  45 S6        29.97S
PHILIP         SUNNY     75  57  53 E10G20    29.94S
PINE RIDGE     SUNNY     75  54  47 VRB3      29.97F
WINNER         FAIR      77  58  51 E10       29.94S
$$

SDZ004>011-016>023-039-040-171900-
NORTHEAST SOUTH DAKOTA

CITY           SKY/WX    TMP DP  RH WIND       PRES   REMARKS
ABERDEEN       SUNNY     69  50  50 NE13      29.96S
WATERTOWN      FAIR      71  52  50 E9        29.95S
SISSETON         N/A     71  52  50 N9        29.95S
$$

SDZ017-020-022-023-036>040-048>070-171900-
SOUTHEAST SOUTH DAKOTA

CITY           SKY/WX    TMP DP  RH WIND       PRES   REMARKS
SIOUX FALLS    FAIR      73  58  59 NE5       29.93F
HURON          SUNNY     75  55  49 NE7       29.93F
CHAMBERLAIN    SUNNY     74  58  58 E6        29.94F
MITCHELL       SUNNY     73  60  63 VRB3      29.94S
YANKTON        FAIR      73  61  64 CALM      29.92S
$$

ABBREVIATIONS USED IN REMARKS
   TC - TEMPERATURE IN CELSIUS
  WCI - WIND CHILL INDEX
   HX - HEAT INDEX
  VSB - VISIBILITY




USA.gov is the U.S. government's official web portal to all federal, state and local government web resources and services.